Location: Lafig�re
(44.4503°N, 4.0357°E)
Time: 00:24:55
(UTC+00:00)

BlueWalker 3 - Pass Details

Date: 09 December 2022
Orbit: 499 x 517 km, 53.2° (Epoch: 05 February)

Event Time Altitude Azimuth Distance (km) Brightness Sun altitude
Rises 17:10:26 0° 305° (NW) 2,630 6.1 -11.4°
Reaches altitude 10° 17:12:42 10° 311° (NW) 1,737 5.1 -11.8°
Maximum altitude 17:16:32 49° 27° (NNE) 663 2.2 -12.4°
Enters shadow 17:19:12 18° 97° (E) 1,301 3.5 -12.9°
